Beidou DW 45

operational
NORAD ID: 44231 Int'l Des: 2019-027 Owner: CNSA Country: CN Constellation: BeiDou
HEOCIRCULARGSO

Beidou DW 45について

説明を読み込み中...

リアルタイム位置

3D地球を読み込み中...

次回通過

高度履歴

Altitude vs Time

uPlot chart will show altitude changes over time

軌道要素

1 44231U 19027A 25299.28870252 -.00000236 00000-0 00000-0 0 9996
2 44231 1.5372 74.5165 0007367 256.7206 312.0570 1.00267412 23739
Epoch: Oct 26, 2025 • Age: 11 hours

現在のステータス

高度 35804.1 km
速度 3.07 km/s
衛星直下点 0.52°N, 144.48°E
打ち上げ日 May 17, 2019
運用期間 6.4 years
タイプ navigation

技術仕様

分類 Payload
質量 3060.00 kg
乾燥質量 1700.00 kg
総質量 3060.00 kg
長さ 3.00 m
直径 1.70 m
スパン 18.00 m
形状 Box + 2 Pan
製造者 CAST
バスタイプ DFH-3B
フェーズステータス In Orbit
所有者/国 CNSA/CN

大規模コンステレーション

Loading constellations...